Date String (YYYY-MM-DD hh:mm:ss) UTC,Instrument flags,Ambient pressure (hPa),Sample flow (lpm),Bypass flow (lpm),Sample temperature (°C),Ambient temperature (°C),ASC tube jacket temperature (°C),LED temperature (°C),Box temperature (°C),Sample RH (%),Span deviation,Mass concentration (μg/m³),Mass concentration (μg/m³),Mass concentration (μg/m³)
DateTimeUTC,F1_M11,P_M11,Q1_M11,Q2_M11,T1_M11,T2_M11,T3_M11,T4_M11,T5_M11,U1_M11,ZSPAN_M11,X0_M11,X2_M11,X1_M11
2022-11-21 09:00:00,,0829.2,5.01,0.00,22.1,20.6,00.0,31.0,23.9,07.5,0000.0,0008.66,0004.06,0003.82
2022-11-21 09:01:00,,0829.2,5.01,0.00,22.0,20.6,00.0,31.0,23.8,07.6,0000.0,0008.81,0004.17,0003.94
2022-11-21 09:02:00,,0829.3,4.99,0.00,22.0,20.5,00.0,31.0,23.8,07.6,0000.0,0008.92,0004.30,0004.08
2022-11-21 09:03:00,,0829.2,5.01,0.00,22.0,20.5,00.0,31.0,23.7,07.6,0000.0,0008.97,0004.37,0004.18
2022-11-21 09:04:00,,0829.4,5.00,0.00,22.0,20.4,00.0,31.0,23.7,07.6,0000.0,0008.91,0004.33,0004.16
2022-11-21 09:05:00,,0829.2,5.01,0.00,22.0,20.6,00.0,30.9,23.8,07.6,0000.0,0008.87,0004.30,0004.12
2022-11-21 09:06:00,,0828.9,5.00,0.00,22.0,21.5,00.0,30.9,24.0,07.6,0000.0,0008.83,0004.25,0004.05
2022-11-21 09:07:00,,0828.8,5.00,0.00,22.1,22.1,00.0,30.9,24.1,07.6,0000.0,0007.99,0004.10,0003.93
2022-11-21 09:08:00,,0829.1,4.99,0.00,22.2,21.8,00.0,31.0,24.1,07.5,0000.0,0007.83,0003.99,0003.82
2022-11-21 09:09:00,,0829.3,4.99,0.00,22.2,21.6,00.0,31.0,24.1,07.5,0000.0,0007.24,0003.89,0003.72
2022-11-21 09:10:00,,0829.4,5.01,0.00,22.2,21.3,00.0,31.0,24.0,07.5,0000.0,0006.13,0003.71,0003.57
2022-11-21 09:11:00,,0829.2,4.99,0.00,22.1,21.0,00.0,31.0,24.0,07.5,0000.0,0005.76,0003.56,0003.42
2022-11-21 09:12:00,,0829.1,5.00,0.00,22.1,20.8,00.0,31.0,23.9,07.4,0000.0,0005.26,0003.39,0003.27
2022-11-21 09:13:00,,0829.2,5.01,0.00,22.1,20.7,00.0,31.0,23.9,07.4,0000.0,0004.84,0003.18,0003.01
2022-11-21 09:14:00,,0829.1,4.98,0.00,22.1,20.7,00.0,31.0,23.8,07.4,0000.0,0004.48,0002.92,0002.67
2022-11-21 09:15:00,,0828.9,5.02,0.00,22.0,20.6,00.0,31.0,23.8,07.4,0000.0,0004.41,0002.82,0002.57
2022-11-21 09:16:00,,0829.0,4.99,0.00,22.0,20.5,00.0,31.0,23.8,07.5,0000.0,0004.23,0002.68,0002.45
2022-11-21 09:17:00,,0829.2,5.00,0.00,22.0,20.5,00.0,31.0,23.7,07.4,0000.0,0004.05,0002.52,0002.31
2022-11-21 09:18:00,,0829.3,5.01,0.00,22.0,20.4,00.0,31.0,23.7,07.4,0000.0,0004.01,0002.48,0002.26
2022-11-21 09:19:00,,0829.3,4.99,0.00,21.9,20.4,00.0,31.0,23.7,07.4,0000.0,0004.01,0002.43,0002.21
2022-11-21 09:20:00,,0829.4,5.01,0.00,21.9,20.6,00.0,30.9,23.7,07.4,0000.0,0003.21,0002.35,0002.14
2022-11-21 09:21:00,,0829.0,5.00,0.00,22.0,21.6,00.0,30.9,23.9,07.3,0000.0,0003.05,0002.36,0002.13
2022-11-21 09:22:00,,0828.8,5.00,0.00,22.1,22.2,00.0,30.9,24.1,07.3,0000.0,0003.09,0002.36,0002.11
2022-11-21 09:23:00,,0828.8,4.99,0.00,22.2,21.9,00.0,31.0,24.1,07.3,0000.0,0003.18,0002.37,0002.06
2022-11-21 09:24:00,,0828.8,5.00,0.00,22.2,21.5,00.0,31.0,24.1,07.3,0000.0,0003.19,0002.33,0002.01
2022-11-21 09:25:00,,0828.9,5.00,0.00,22.1,21.3,00.0,31.0,24.0,07.3,0000.0,0003.16,0002.28,0001.96
2022-11-21 09:26:00,,0828.9,4.99,0.00,22.1,21.1,00.0,31.0,24.0,07.2,0000.0,0003.10,0002.24,0001.92
2022-11-21 09:27:00,,0828.8,5.02,0.00,22.1,20.9,00.0,31.0,24.0,07.2,0000.0,0003.16,0002.30,0001.99
2022-11-21 09:28:00,,0828.9,4.98,0.00,22.1,20.8,00.0,31.0,23.9,07.2,0000.0,0003.21,0002.37,0002.06
2022-11-21 09:29:00,,0828.8,5.01,0.00,22.1,20.7,00.0,31.0,23.9,07.2,0000.0,0003.29,0002.41,0002.07
2022-11-21 09:30:00,,0828.9,5.00,0.00,22.1,20.7,00.0,31.0,23.9,07.2,0000.0,0003.23,0002.37,0002.03
2022-11-21 09:31:00,,0828.8,5.00,0.00,22.1,20.7,00.0,31.0,23.9,07.1,0000.0,0003.20,0002.34,0001.98
2022-11-21 09:32:00,,0829.0,5.01,0.00,22.0,20.6,00.0,31.0,23.8,07.1,0000.0,0003.15,0002.29,0001.94
2022-11-21 09:33:00,,0829.2,4.98,0.00,22.0,20.6,00.0,31.0,23.8,07.1,0000.0,0003.13,0002.25,0001.89
2022-11-21 09:34:00,,0829.4,5.02,0.00,22.0,20.5,00.0,31.0,23.8,07.1,0000.0,0003.07,0002.23,0001.89
2022-11-21 09:35:00,,0829.2,4.99,0.00,22.0,20.5,00.0,31.0,23.8,07.2,0000.0,0003.09,0002.29,0001.95
2022-11-21 09:36:00,,0829.2,5.00,0.00,21.9,20.4,00.0,31.0,23.8,07.3,0000.0,0003.16,0002.43,0002.10
2022-11-21 09:37:00,,0829.3,5.01,0.00,22.0,20.7,00.0,30.9,23.8,07.2,0000.0,0003.38,0002.55,0002.18
2022-11-21 09:38:00,,0829.3,4.99,0.00,22.0,21.5,00.0,30.9,24.0,07.3,0000.0,0003.44,0002.58,0002.19
2022-11-21 09:39:00,,0829.2,5.01,0.00,22.1,22.3,00.0,30.9,24.2,07.2,0000.0,0003.37,0002.56,0002.22
2022-11-21 09:40:00,,0828.8,4.98,0.00,22.2,22.0,00.0,30.9,24.2,07.2,0000.0,0003.37,0002.60,0002.29
2022-11-21 09:41:00,,0829.1,5.01,0.00,22.2,21.7,00.0,31.0,24.1,07.2,0000.0,0003.45,0002.70,0002.41
2022-11-21 09:42:00,,0829.2,4.99,0.00,22.2,21.5,00.0,31.0,24.1,07.1,0000.0,0003.54,0002.77,0002.50
2022-11-21 09:43:00,,0829.3,5.00,0.00,22.2,21.2,00.0,31.0,24.1,07.1,0000.0,0003.67,0002.79,0002.52
2022-11-21 09:44:00,,0829.3,5.01,0.00,22.2,21.0,00.0,31.1,24.0,07.1,0000.0,0003.58,0002.75,0002.51
2022-11-21 09:45:00,,0829.3,4.99,0.00,22.2,20.9,00.0,31.1,24.0,07.1,0000.0,0003.44,0002.68,0002.47
2022-11-21 09:46:00,,0829.3,5.00,0.00,22.1,20.8,00.0,31.1,24.0,07.2,0000.0,0003.37,0002.60,0002.41
2022-11-21 09:47:00,,0829.3,5.00,0.00,22.1,20.7,00.0,31.1,23.9,07.2,0000.0,0003.21,0002.45,0002.25
2022-11-21 09:48:00,,0829.1,5.00,0.00,22.1,20.7,00.0,31.0,23.9,07.2,0000.0,0002.93,0002.28,0002.14
2022-11-21 09:49:00,,0829.2,5.00,0.00,22.1,20.6,00.0,31.0,23.9,07.2,0000.0,0002.77,0002.15,0002.00
2022-11-21 09:50:00,,0829.1,5.00,0.00,22.1,20.6,00.0,31.0,23.9,07.3,0000.0,0002.60,0001.99,0001.85
2022-11-21 09:51:00,,0828.8,5.01,0.00,22.0,20.6,00.0,31.0,23.8,07.3,0000.0,0002.63,0001.85,0001.70
2022-11-21 09:52:00,,0828.8,4.98,0.00,22.0,20.5,00.0,31.0,23.7,07.3,0000.0,0002.68,0001.70,0001.52
2022-11-21 09:53:00,,0828.8,5.01,0.00,22.0,20.5,00.0,31.0,23.7,07.3,0000.0,0002.57,0001.58,0001.40
2022-11-21 09:54:00,,0828.7,4.99,0.00,22.0,20.4,00.0,31.0,23.7,07.3,0000.0,0002.40,0001.54,0001.37
2022-11-21 09:55:00,,0828.7,5.01,0.00,22.0,21.0,00.0,30.9,23.8,07.3,0000.0,0002.41,0001.56,0001.38
2022-11-21 09:56:00,,0828.8,5.01,0.00,22.1,21.9,00.0,30.9,24.0,07.3,0000.0,0002.49,0001.58,0001.38
2022-11-21 09:57:00,,0828.7,4.98,0.00,22.2,22.2,00.0,30.9,24.2,07.4,0000.0,0002.54,0001.58,0001.37
2022-11-21 09:58:00,,0828.8,5.00,0.00,22.2,21.8,00.0,31.0,24.1,07.3,0000.0,0002.54,0001.59,0001.37
2022-11-21 09:59:00,,0829.0,5.01,0.00,22.2,21.5,00.0,31.0,24.1,07.3,0000.0,0002.59,0001.65,0001.44
